Regional Weather Roundup
Issued by NWS

Home | Current Version | Previous Version | Text Only | Print | Product List | Glossary Off
Versions: 1 2 3 4 5 6 7 8 9 10 11 12 13 14 15 16 17 18 19 20 21 22 23 24 25 26 27 28 29 30 31 32 33 34 35 36 37 38 39 40 41 42 43 44 45 46 47 48 49 50

000
ASUS43 KIND 241459
RWRIN

WEATHER ROUNDUP FOR INDIANA
NATIONAL WEATHER SERVICE INDIANAPOLIS IN
1100 AM EDT FRI APR 24 2015

NOTE: "FAIR" INDICATES FEW OR NO CLOUDS BELOW 12,000 FEET WITH NO
SIGNIFICANT WEATHER AND/OR OBSTRUCTIONS TO VISIBILITY.

* - STATION DOES NOT REPORT WEATHER SUCH AS PRECIPITATION OR FOG.

+ - STATION NOT QUALITY CONTROLLED BY THE NATIONAL WEATHER SERVICE.
    USE DATA WITH CAUTION...ESPECIALLY DEWPOINT AND RELATIVE
    HUMIDITY OBSERVATIONS.

INZ001>003-010>013-019-020-241600-
NORTHWEST INDIANA

CITY           SKY/WX    TMP DP  RH WIND       PRES   REMARKS
GARY /AIRPORT/ MOSUNNY   54   3  13 VRB5      30.09S
RENSSELAER +   SUNNY     54  19  26 S5        30.09F

$$

LMZ046-743>745-241600-
SOUTHERN LAKE MICHIGAN

STATION/POSITION TIME  TEMP    WIND        PRES    WAVE
                       AIR SEA DIR/SP/G            HT
                 (UTC) (F)     (DEG/KT/KT) (MB)    (FT)
BURNS HARBOR     1400   46      20/  1/  5 1019.3F
MICHIGAN CITY    1400   45     250/  3/  4   N/A
5NW MICH CITY    1400   44 45   CALM  /  2   N/A     1

$$

INZ004-005-014>016-021>024-241600-
NORTH CENTRAL INDIANA

CITY           SKY/WX    TMP DP  RH WIND       PRES   REMARKS
GOSHEN         SUNNY     51  27  39 SW7       30.10S
SOUTH BEND     SUNNY     52  15  23 W3        30.10F

$$

INZ006>009-017-018-025>027-241600-
NORTHEAST INDIANA

CITY           SKY/WX    TMP DP  RH WIND       PRES   REMARKS
ANGOLA *+      SUNNY     52  23  32 W7        30.09S
FORT WAYNE     MOSUNNY   51  27  39 SW9       30.12R

$$

INZ028-029-035-036-043>045-051>053-241600-
WEST CENTRAL INDIANA

CITY           SKY/WX    TMP DP  RH WIND       PRES   REMARKS
CRAWFORDSVL +  MOSUNNY   53  13  20 SW8       30.10S
GREENCASTLE +  MOSUNNY   54  21  28 W5        30.12R
LAFAYETTE      SUNNY     54  23  30 S5        30.10F
TERRE HAUTE    MOSUNNY   56  26  31 S8        30.12R

$$

INZ030>032-037>040-046>048-054>057-064-065-241600-
CENTRAL INDIANA

CITY           SKY/WX    TMP DP  RH WIND       PRES   REMARKS
COLUMBUS       SUNNY     50  25  37 S6        30.13S
GREENWOOD *+   MOSUNNY   54  21  28 SW3       30.12S
INDIANAPOLIS   PTSUNNY   54  23  30 SW8       30.10S
-EAGLE CREEK   SUNNY     53  21  28 VRB7      30.10F
KOKOMO *+      SUNNY     55  23  28 SW7       30.10F
MT COMFORT *+  SUNNY     54  12  19 SW5       30.12S
SHELBYVILLE    MOSUNNY   53  28  38 SW8       30.11F

$$

INZ033-034-041-042-049-050-058-059-241600-
EAST CENTRAL INDIANA

CITY           SKY/WX    TMP DP  RH WIND       PRES   REMARKS
MUNCIE         SUNNY     52  26  36 W7        30.11S

$$

INZ060-061-067>069-081>083-085>088-241600-
SOUTHWEST INDIANA

CITY           SKY/WX    TMP DP  RH WIND       PRES   REMARKS
EVANSVILLE     PTSUNNY   57  29  34 S9        30.14R
HUNTINGBURG *+ MOSUNNY   55  30  38 S8        30.13S

$$

INZ062-063-066-070>080-084-089>092-241600-
SOUTH CENTRAL AND SOUTHEAST INDIANA

CITY           SKY/WX    TMP DP  RH WIND       PRES   REMARKS
BLOOMINGTON    MOSUNNY   54  24  31 SE8       30.12R
MADISON *+     SUNNY     52  28  40 S5        30.15R
SEYMOUR +      SUNNY     55  32  41 S7        30.13S

$$



USA.gov is the U.S. government's official web portal to all federal, state and local government web resources and services.